Regional Weather Roundup
Issued by NWS Charleston, WV

Home | Current Version | Previous Version | Graphics & Text | Print | Product List | Glossary On
Versions: 1 2 3 4 5 6 7 8 9 10 11 12 13 14 15 16 17 18 19 20 21 22 23 24 25 26 27 28 29 30 31 32 33 34 35 36 37 38 39 40 41 42 43 44 45 46 47 48 49 50
000
ASUS41 KRLX 211110
RWRRLX
West Virginia Regional Weather Roundup
National Weather Service Charleston WV
600 AM EST SUN DEC 21 2014

Note: "fair" indicates few or no clouds below 12,000 feet with no
significant weather and/or obstructions to visibility.

WVZ003-211200-
Northern Panhandle of West Virginia

CITY           SKY/WX    TMP DP  RH WIND       PRES   REMARKS
WHEELING       CLOUDY    28  21  75 CALM      30.28R
$$

WVZ009-211200-
Northwest West Virginia

CITY           SKY/WX    TMP DP  RH WIND       PRES   REMARKS
PARKERSBURG    CLOUDY    32  24  72 CALM      30.32R
$$

WVZ006-211200-
Western West Virginia

CITY           SKY/WX    TMP DP  RH WIND       PRES   REMARKS
HUNTINGTON     CLOUDY    30  27  88 N3        30.29R
$$

WVZ015-211200-
West Central West Virginia

CITY           SKY/WX    TMP DP  RH WIND       PRES   REMARKS
CHARLESTON     CLEAR     28  25  88 SE3       30.28R
$$

WVZ022-031-211200-
North Central West Virginia

CITY           SKY/WX    TMP DP  RH WIND       PRES   REMARKS
CLARKSBURG     CLOUDY    30  25  81 CALM      30.27R
MORGANTOWN     CLOUDY    30  20  66 CALM      30.28R
$$

WVZ025-035-042-045-211200-
Southern West Virginia

CITY           SKY/WX    TMP DP  RH WIND       PRES   REMARKS
BECKLEY        CLOUDY    31  26  82 CALM      30.20R
LOGAN            N/A     28  27  93 CALM      30.23S
BLUEFIELD      CLOUDY    32  27  81 CALM      30.19R
LEWISBURG      CLOUDY    34  30  85 CALM      30.21R
$$

WVZ047-211200-
Northern Mountains of West Virginia

CITY           SKY/WX    TMP DP  RH WIND       PRES   REMARKS
ELKINS         CLOUDY    30  27  88 CALM      30.24R
$$

WVZ052-211200-
Eastern Panhandle of West Virginia

CITY           SKY/WX    TMP DP  RH WIND       PRES   REMARKS
MARTINSBURG    CLOUDY    32  22  66 CALM      30.30R
PETERSBURG     CLOUDY    33  27  80 CALM      30.29R
$$


USA.gov is the U.S. government's official web portal to all federal, state and local government web resources and services.